Francistown, Botswana

7:49 PM CAT on February 26, 2017 (GMT +0200)
Francistown

Weather History for FBFT - September, 2013

Change the Weather History Date:

Wednesday, September 18, 2013

  Actual Average Record
Temperature  
Mean Temperature 78 °F -  
Max Temperature 96 °F 85 °F 99 °F (2014)
Min Temperature 59 °F 59 °F 43 °F (2012)
Cooling Degree Days 12    
Growing Degree Days 28 (Base 50)    
Moisture  
Dew Point 46 °F    
Average Humidity 36    
Maximum Humidity 68    
Minimum Humidity 10    
Precipitation  
Precipitation 0.00 in - - ()
Sea Level Pressure  
Sea Level Pressure 30.06 in    
Wind  
Wind Speed 5 mph ()    
Max Wind Speed 10 mph    
Max Gust Speed -    
Visibility 6.0 miles    
Events      
Averages and records for this station are not official NWS values.
T = Trace of Precipitation, MM = Missing Value Source: Averaged Metar Reports

Daily Weather History Graph

Daily Weather History Graph

Search for Another Location

Airport or City:

Trip Planner

Search our weather history database for the weather conditions in past years. The results will help you decide how hot, cold, wet, or windy it might be!

Date:

Astronomy

Sep. 18, 2013 Rise Set
Actual Time 6:03 AM CAT 6:05 PM CAT
Civil Twilight 5:41 AM CAT 6:27 PM CAT
Nautical Twilight 5:15 AM CAT 6:53 PM CAT
Astronomical Twilight 4:49 AM CAT 7:18 PM CAT
Moon 5:14 PM CAT (9/18) 4:58 AM CAT (9/18)
Length of Visible Light 12h 45m
Length of Day
12h 01m
Waxing Gibbous, 99% of the Moon is Illuminated
Sep 18
Waxing Gibbous
Sep 19
Full
Sep 27
Last Quarter
Oct 5
New
Oct 12
First Quarter

Hourly Weather History & Observations

Time (CAT) Temp. Heat Index Dew Point Humidity Pressure Visibility Wind Dir Wind Speed Gust Speed Precip Events Conditions
12:00 AM 73.4 °F - 48.2 °F 41% 30.12 in - ENE 6.9 mph - N/A   Clear
1:00 AM 71.6 °F - 50.0 °F 46% 30.09 in - East 3.5 mph - N/A   Clear
2:00 AM 68.0 °F - 50.0 °F 52% 30.09 in - SE 4.6 mph - N/A   Clear
3:00 AM 64.4 °F - 48.2 °F 56% 30.06 in - SE 8.1 mph - N/A   Clear
5:00 AM 60.8 °F - 50.0 °F 68% 30.09 in - SE 1.2 mph - N/A   Clear
6:00 AM 59.0 °F - 48.2 °F 67% 30.09 in - SE 3.5 mph - N/A   Clear
7:00 AM 62.6 °F - 48.2 °F 59% 30.09 in - East 5.8 mph - N/A   Clear
8:00 AM 68 °F - 52 °F 47%  in 6 mi ESE 3.5 mph - -  
8:00 AM 68.0 °F - 51.8 °F 56% 30.12 in - ESE 3.5 mph - N/A   Clear
9:00 AM 75.2 °F - 51.8 °F 44% 30.12 in - South 3.5 mph - N/A   Clear
10:00 AM 80.6 °F 80.3 °F 53.6 °F 39% 30.12 in - NW 3.5 mph - N/A   Clear
11:00 AM 84.2 °F - 51.8 °F 33% 30.12 in - West 3.5 mph - N/A   Clear
12:00 PM 87.8 °F - 51.8 °F 29% 30.09 in - WNW 4.6 mph - N/A   Clear
1:00 PM 91.4 °F - 48.2 °F 23% 30.04 in - Variable 2.3 mph - N/A   Clear
2:00 PM 94 °F - 43 °F 10%  in 6 mi ESE 9.2 mph - -   Haze
2:00 PM 95.0 °F - 42.8 °F 16% 30.01 in - ESE 9.2 mph - N/A   Clear
3:00 PM 96.8 °F - 35.6 °F 12% 29.98 in - SE 9.2 mph - N/A   Clear
4:00 PM 93.2 °F - 39.2 °F 15% 29.98 in - SE 10.4 mph - N/A   Clear
5:00 PM 93.2 °F - 41.0 °F 16% 29.95 in - ESE 5.8 mph - N/A   Clear
6:00 PM 89.6 °F - 39.2 °F 17% 29.98 in - East 9.2 mph - N/A   Clear
8:00 PM 77.0 °F - 48.2 °F 36% 30.01 in - SE 6.9 mph - N/A   Clear
9:00 PM 73.4 °F - 39.2 °F 29% 30.04 in - SE 5.8 mph - N/A   Clear
10:00 PM 71.6 °F - 39.2 °F 31% 30.04 in - SE 9.2 mph - N/A   Clear
11:00 PM 69.8 °F - 39.2 °F 33% 30.06 in - SE 6.9 mph - N/A   Clear